DC7RY Weather Reports


time (UTC)temp
C
wind
direction
speed
KPH
gust
KPH
rain 1hr
cm
rain 24hr
cm
rain mn
cm
humidity
%
barometer
mb
20260506073029 13 240 0.0 3.2 0.00 1.17 0.03 99 1000.4
20260506072021 13 242 0.0 3.2 0.00 1.17 0.03 99 1000.2
20260506071028 13 268 0.0 12.9 0.00 1.17 0.03 99 1000.3
20260506062019 12 0.0 0.0 0.00 1.17 0.03 99 1000.3
20260506061027 12 0.0 0.0 0.00 1.17 0.03 99 1000.3
20260506051024 11 0.0 0.0 0.00 1.17 0.03 99 1000.7
20260506045023 11 0.0 0.0 0.00 1.17 0.03 99 1000.6
20260506044030 11 0.0 0.0 0.00 1.17 0.03 99 1000.5
20260506043021 11 0.0 0.0 0.00 1.17 0.03 99 1000.3
20260506042028 11 0.0 0.0 0.00 1.17 0.03 99 1000.5
20260506041020 11 0.0 0.0 0.00 1.17 0.03 99 1000.4
20260506040027 11 0.0 0.0 0.00 1.19 0.03 99 1000.5
20260506035019 11 270 0.0 8.0 0.00 1.19 0.03 99 1000.3
20260506034025 11 270 0.0 3.2 0.00 1.19 0.03 99 1000.3
20260506033017 11 0.0 0.0 0.00 1.19 0.03 99 1000.3
20260506032025 11 0.0 0.0 0.00 1.19 0.03 99 1000.3
20260506031017 11 0.0 0.0 0.00 1.19 0.03 99 1000.3
20260506030024 11 0.0 0.0 0.00 1.19 0.03 99 1000.4
20260506025032 11 0.0 0.0 0.00 1.19 0.03 99 1000.5
20260506024022 11 0.0 0.0 0.00 1.22 0.03 99 1000.6
20260506023030 12 0.0 0.0 0.00 1.22 0.03 99 1000.6
20260506022022 12 0.0 0.0 0.03 1.22 0.03 99 1000.5
20260506021030 12 0.0 0.0 0.03 1.22 0.03 99 1000.7
20260506020022 12 0.0 0.0 0.03 1.24 0.03 99 1000.8
20260506015030 12 0.0 0.0 0.03 1.24 0.03 99 1000.8
20260506014022 12 0.0 0.0 0.03 1.24 0.03 99 1000.9
20260506013030 12 284 0.0 3.2 0.03 1.24 0.03 99 1000.9
20260506012022 12 0.0 0.0 0.00 1.22 0.00 99 1001.0
20260506011030 12 0.0 0.0 0.00 1.22 0.00 99 1001.1
20260506010021 12 0.0 0.0 0.00 1.22 0.00 99 1001.0
20260506005029 12 0.0 0.0 0.00 1.22 0.00 99 1001.1
20260506004021 12 0.0 0.0 0.00 1.22 0.00 99 1001.3
20260506003029 12 0.0 0.0 0.00 1.22 0.00 99 1001.3
20260506002021 12 0.0 0.0 0.00 1.22 0.00 99 1001.3
20260506001029 11 0.0 0.0 0.00 1.22 0.00 99 1001.4
20260506000021 11 0.0 0.0 0.00 1.22 0.00 99 1001.5
20260505235029 11 0.0 0.0 0.00 1.22 0.00 99 1001.4
20260505234020 11 0.0 0.0 0.00 1.22 0.00 99 1001.4
20260505233028 11 0.0 0.0 0.00 1.22 0.00 99 1001.5
20260505232020 11 0.0 0.0 0.00 1.22 0.00 99 1001.5
20260505231027 11 0.0 0.0 0.00 1.22 0.00 99 1001.4
20260505230019 11 0.0 0.0 0.00 1.22 0.00 99 1001.3
20260505225027 11 0.0 0.0 0.00 1.22 0.00 99 1001.1
20260505224019 11 0.0 0.0 0.00 1.22 0.00 99 1001.2
20260505223027 11 0.0 0.0 0.00 1.22 0.00 99 1001.0
20260505222019 11 0.0 0.0 0.00 1.22 0.00 99 1001.0
20260505221027 11 0.0 0.0 0.00 1.22 0.00 99 1001.0
20260505220019 12 0.0 0.0 0.00 1.22 0.00 99 1001.1
20260505215019 12 0.0 0.0 0.00 1.22 1.22 99 1001.3
20260505214026 12 0.0 0.0 0.00 1.22 1.22 99 1001.3
20260505213017 12 0.0 0.0 0.00 1.22 1.22 99 1001.5
20260505212020 12 0.0 0.0 0.00 1.22 1.22 99 1001.7
20260505211028 12 0.0 0.0 0.00 1.22 1.22 99 1001.4
20260505210019 12 0.0 0.0 0.00 1.22 1.22 99 1001.3
20260505205025 12 0.0 0.0 0.00 1.22 1.22 99 1001.4
20260505204032 12 0.0 0.0 0.00 1.22 1.22 99 1001.3
20260505203024 12 0.0 0.0 0.00 1.22 1.22 99 1001.2
20260505202031 12 0.0 0.0 0.00 1.22 1.22 99 1001.2
20260505201022 12 0.0 0.0 0.03 1.22 1.22 99 1001.1
20260505200029 12 0.0 0.0 0.05 1.22 1.22 99 1000.9
20260505195020 12 0.0 0.0 0.15 1.22 1.22 99 1000.9
20260505194027 12 0.0 0.0 0.25 1.22 1.22 99 1001.0
20260505193018 12 0.0 0.0 0.33 1.22 1.22 99 1000.9
20260505192025 12 0.0 0.0 0.36 1.22 1.22 99 1001.1
20260505191030 12 174 0.0 3.2 0.38 1.19 1.19 99 1000.9
20260505190021 12 270 0.0 3.2 0.48 1.17 1.17 99 1000.9
20260505185030 12 270 0.0 3.2 0.51 1.07 1.07 99 1000.7
20260505184028 12 270 0.0 3.2 0.56 0.97 0.97 99 1000.8
20260505183017 12 274 1.6 8.0 0.58 0.89 0.89 99 1000.5
20260505182022 12 103 1.6 8.0 0.69 0.86 0.86 99 1000.6
20260505181028 12 0.0 0.0 0.66 0.81 0.81 99 1000.7
20260505180018 12 0.0 0.0 0.58 0.69 0.69 99 1000.8
20260505175024 13 273 1.6 8.0 0.48 0.56 0.56 99 1001.0
20260505174022 13 273 1.6 20.9 0.33 0.41 0.41 98 1000.8
20260505173028 14 277 8.0 32.2 0.23 0.30 0.30 97 1000.8
20260505172020 15 275 14.5 37.0 0.10 0.18 0.18 95 1000.8
20260505171026 16 271 8.0 24.1 0.08 0.15 0.15 92 1000.2
20260505170016 17 271 4.8 16.1 0.03 0.10 0.10 86 1000.2
20260505165022 17 289 1.6 8.0 0.00 0.08 0.08 80 999.9
20260505164029 17 95 3.2 12.9 0.00 0.08 0.08 78 999.9
20260505163021 17 89 3.2 12.9 0.00 0.08 0.08 78 1000.0
20260505162029 17 90 1.6 8.0 0.00 0.08 0.08 79 999.9
20260505161019 17 285 0.0 3.2 0.00 0.08 0.08 81 1000.2
20260505153031 18 93 1.6 8.0 0.00 0.08 0.08 70 1000.3
20260505152022 18 96 1.6 8.0 0.00 0.08 0.08 69 1000.4
20260505151025 18 90 0.0 8.0 0.00 0.08 0.08 68 1000.3
20260505125016 23 270 3.2 12.9 0.00 0.08 0.08 49 1002.0
20260505124024 23 93 3.2 12.9 0.00 0.08 0.08 49 1002.1
20260505123016 23 289 1.6 12.9 0.00 0.08 0.08 49 1002.3
20260505122024 22 282 3.2 12.9 0.00 0.08 0.08 50 1002.2
20260505121016 22 269 1.6 12.9 0.00 0.08 0.08 48 1002.4
20260505120022 22 267 1.6 12.9 0.00 0.08 0.08 49 1002.4
20260505115030 22 86 3.2 16.1 0.00 0.08 0.08 50 1002.4
20260505114022 22 271 4.8 12.9 0.00 0.08 0.08 49 1002.7
20260505113030 22 232 1.6 8.0 0.00 0.08 0.08 51 1002.9
20260505112022 21 270 1.6 12.9 0.00 0.08 0.08 51 1002.8
20260505111028 21 316 0.0 8.0 0.00 0.08 0.08 53 1002.9
20260505102017 19 99 1.6 8.0 0.00 0.08 0.08 61 1003.4
20260505101025 19 270 4.8 16.1 0.00 0.08 0.08 59 1003.7
20260505100017 18 212 0.0 8.0 0.00 0.08 0.08 69 1003.8
20260505095025 18 270 0.0 3.2 0.00 0.08 0.08 73 1003.9
20260505094017 17 94 1.6 12.9 0.00 0.08 0.08 75 1003.8
20260505093025 17 88 1.6 8.0 0.00 0.08 0.08 75 1003.8
20260505092017 17 94 1.6 8.0 0.00 0.08 0.08 75 1003.9
20260505091022 17 92 0.0 3.2 0.00 0.08 0.08 76 1003.7
20260505090029 17 105 0.0 3.2 0.00 0.08 0.08 78 1003.8
20260505085021 16 90 0.0 3.2 0.00 0.08 0.08 77 1003.8
20260505084029 16 121 0.0 8.0 0.00 0.08 0.08 81 1003.8
20260505083021 16 282 1.6 8.0 0.00 0.08 0.08 84 1003.9
20260505082029 15 276 1.6 8.0 0.00 0.08 0.08 86 1003.9
20260505081021 15 53 1.6 8.0 0.00 0.08 0.08 87 1004.0
20260505080027 15 279 1.6 8.0 0.00 0.08 0.08 88 1003.9